CAPE
0 0 0 0 0 0 0 0 0 0 0 0 0 0 0 0 0 0 0 0 0 0 0 0 0 0 0 99 160 169 172 81 69 56 34 0 0 0 0 0 0 0 0
0 0 0 0 0 0 0 0 0 0 0 0 0 0 0 0 0 0 0 0 0 0 0 0 0 0 0 0 110 195 202 170 121 154 2 8 0 0 0 0 0 0 0
0 0 0 0 0 0 0 0 0 0 0 0 0 0 0 0 0 0 0 0 0 0 0 0 0 0 0 0 20 171 189 120 73 104 43 14 7 0 0 0 0 0 0
0 0 0 0 0 0 0 0 0 0 0 0 0 0 0 0 0 0 0 0 0 0 0 0 0 0 0 0 4 118 185 229 123 172 104 0 0 0 0 0 0 0 0
0 0 0 0 0 0 0 0 0 0 0 0 0 0 0 0 0 0 0 0 0 0 0 0 0 0 0 0 0 61 214 194 152 125 39 101 0 0 0 0 0 0 0
0 0 0 0 0 0 0 0 0 0 0 2 0 0 0 0 0 0 0 0 0 0 0 0 0 0 0 0 0 29 108 116 210 161 128 109 82 0 0 0 0 0 0
0 0 0 0 0 0 0 0 0 0 0 2 2 5 0 0 0 0 0 0 0 0 0 0 0 0 0 0 0 0 36 93 118 146 145 145 112 0 3 0 0 0 0
0 0 0 0 0 0 0 0 0 0 0 0 0 1 5 2 0 0 0 0 0 0 0 0 0 0 0 0 0 0 0 58 127 141 178 157 157 18 0 15 26 0 0
0 0 0 0 0 0 0 0 0 0 0 0 0 0 0 1 4 0 0 0 0 0 0 0 0 0 0 0 0 1 1 11 33 61 118 123 132 83 19 0 0 29 24
0 0 0 0 0 0 0 0 0 0 0 0 0 0 0 3 7 5 0 0 0 0 0 0 0 0 0 0 12 16 12 42 47 70 99 108 102 92 42 27 30 19 24
0 0 0 0 0 0 0 0 0 0 0 0 0 0 3 3 5 4 0 0 0 0 0 0 0 0 0 8 65 90 74 50 41 40 52 65 125 96 84 45 46 19 6
0 0 0 0 0 0 0 0 0 0 0 0 0 3 8 9 6 0 0 0 0 0 0 0 0 7 11 13 37 128 158 104 93 66 95 70 109 57 87 98 71 49 23
0 0 0 0 0 0 0 0 0 0 0 0 0 5 6 5 2 0 0 0 0 0 0 0 6 0 0 0 20 103 142 63 83 108 141 101 187 168 153 37 23 21 28
0 0 0 0 0 0 0 0 0 0 0 0 0 1 4 3 1 0 0 0 0 0 0 0 0 0 0 0 25 81 104 49 44 65 79 58 87 94 74 128 120 85 44
0 0 0 0 0 0 0 0 0 0 0 0 0 0 0 2 2 2 0 2 0 0 0 0 0 0 4 0 1 0 12 7 16 24 56 67 75 94 36 19 14 1 13
0 0 0 0 0 0 0 0 0 0 0 0 0 0 0 1 5 3 2 2 1 0 0 0 0 0 0 2 0 0 0 0 0 0 0 46 114 11 5 0 12 24 25
0 0 0 0 0 0 0 0 0 0 0 0 0 0 0 0 3 4 1 2 2 1 2 2 1 1 0 2 2 0 0 1 0 0 0 0 0 1 2 0 0 0 0
0 0 0 0 0 0 0 0 0 0 0 0 0 0 0 0 0 1 3 3 4 3 1 1 2 2 2 4 2 1 0 0 0 0 0 0 0 0 0 0 2 1 1
0 0 0 0 0 0 0 0 0 0 0 0 0 0 0 0 0 0 0 1 2 2 2 1 1 2 1 9 3 1 1 0 0 0 0 0 1 0 0 0 0 1 2
0 0 0 0 0 0 0 0 0 0 0 0 0 0 0 0 0 0 0 0 0 0 0 1 0 2 1 6 7 0 0 1 1 1 1 5 2 2 1 0 0 0 2
0 0 0 0 0 0 0 0 0 0 0 0 0 0 0 0 0 0 0 0 0 0 0 0 0 0 1 1 16 5 0 1 1 2 4 4 7 8 7 2 1 4 2
0 0 0 0 0 0 0 0 0 0 0 0 0 0 0 0 0 0 0 0 0 0 0 0 0 0 0 2 8 7 4 3 2 2 2 4 5 4 4 2 4 3 1
0 0 0 0 0 0 0 0 0 0 0 0 0 0 0 0 0 0 0 0 0 0 0 0 0 0 0 0 1 7 4 3 1 0 2 2 3 3 2 4 2 0 0
0 0 0 0 0 0 0 0 0 0 0 0 0 0 0 0 0 0 0 0 0 0 0 0 0 0 0 0 0 0 0 0 0 0 0 1 3 3 2 1 0 0 0
0 0 0 0 0 0 0 0 0 0 0 0 0 0 0 0 0 0 0 0 0 0 0 0 0 0 0 0 1 0 0 0 0 0 0 0 0 0 1 1 1 0 0
0 0 0 0 0 0 0 0 0 0 0 0 0 0 0 0 0 0 0 0 0 2 1 1 0 0 2 0 0 1 3 2 0 0 0 1 2 1 1 0 1 2 2
CIN
-0 -0 -0 -0 -0 -0 -0 -0 -0 -0 -0 -0 -0 -0 -0 -0 -0 -0 -0 -0 -0 -0 -0 -0 -0 -0 -0 -2 -6 -9 -2 -7 -18 -25 -14 -0 -0 -0 -0 -0 -0 -0 -0
-0 -0 -0 -0 -0 -0 -0 -0 -0 -0 -0 -0 -0 -0 -0 -0 -0 -0 -0 -0 -0 -0 -0 -0 -0 -0 -0 -0 -3 -4 -1 -0 -7 -2 -77 -43 -2 -0 -0 -0 -0 -0 -0
-0 -0 -0 -0 -0 -0 -0 -0 -0 -0 -0 -0 -0 -0 -0 -0 -0 -0 -0 -0 -0 -0 -0 -0 -0 -0 -0 -0 -4 -3 -3 -4 -26 -50 -45 -10 -8 -0 -0 -0 -0 -0 -0
-0 -0 -0 -0 -0 -0 -0 -0 -0 -0 -0 -0 -0 -0 -0 -0 -0 -0 -0 -0 -0 -0 -0 -0 -0 -0 -0 -0 -6 -5 -3 -5 -5 -9 -42 -0 -0 -0 -0 -0 -0 -0 -0
-0 -0 -0 -0 -0 -0 -0 -0 -0 -0 -0 -0 -0 -0 -0 -0 -0 -0 -0 -0 -0 -0 -0 -0 -0 -0 -0 -0 -0 -7 -7 -5 -4 -11 -50 -33 -0 -0 -0 -1 -0 -0 -0
-0 -0 -0 -0 -0 -0 -0 -0 -0 -0 -0 -0 -0 -0 -0 -0 -0 -0 -0 -0 -0 -0 -0 -0 -0 -0 -0 -0 -0 -16 -7 -8 -5 -10 -18 -22 -9 -0 -0 -0 -0 -0 -0
-0 -0 -0 -0 -0 -0 -0 -0 -0 -0 -0 -0 -0 -0 -0 -0 -0 -0 -0 -0 -0 -0 -0 -0 -0 -0 -0 -0 -0 -0 -11 -9 -6 -8 -13 -17 -17 -0 -14 -0 -0 -0 -0
-0 -0 -0 -0 -0 -0 -0 -0 -0 -0 -0 -0 -0 -0 -0 -0 -0 -0 -0 -0 -0 -0 -0 -0 -0 -0 -0 -0 -0 -0 -0 -13 -17 -18 -17 -11 -18 -41 -1 -31 -47 -0 -0
-0 -0 -0 -0 -0 -0 -0 -0 -0 -0 -0 -0 -0 -0 -0 -0 -0 -0 -0 -0 -0 -0 -0 -0 -0 -0 -0 -0 -0 -4 -3 -41 -32 -26 -22 -13 -12 -24 -43 -0 -0 -31 -8
-0 -0 -0 -0 -0 -0 -0 -0 -0 -0 -0 -0 -0 -0 -0 -0 -0 -0 -0 -0 -0 -0 -0 -0 -0 -0 -0 -0 -10 -18 -33 -35 -32 -31 -43 -20 -24 -21 -37 -51 -36 -30 -13
-0 -0 -0 -0 -0 -0 -0 -0 -0 -0 -0 -0 -0 -0 -0 -0 -0 -0 -0 -0 -0 -0 -0 -0 -0 -0 -0 -70 -17 -17 -34 -57 -56 -63 -27 -20 -30 -21 -36 -51 -46 -23 -23
-0 -0 -0 -0 -0 -0 -0 -0 -0 -0 -0 -0 -0 -0 -0 -0 -0 -0 -0 -0 -0 -0 -0 -0 -0 -25 -51 -56 -16 -14 -19 -56 -52 -78 -54 -36 -36 -51 -32 -17 -14 -14 -36
-0 -0 -0 -0 -0 -0 -0 -0 -0 -0 -0 -0 -0 -0 -0 -0 -0 -0 -0 -0 -0 -0 -0 -0 -73 -0 -0 -0 -83 -40 -47 -81 -73 -63 -53 -39 -36 -12 -2 -13 -12 -22 -25
-0 -0 -0 -0 -0 -0 -0 -0 -0 -0 -0 -0 -0 -0 -0 -0 -0 -0 -0 -0 -0 -0 -0 -0 -0 -0 -0 -0 -89 -100 -108 -115 -119 -92 -95 -84 -62 -33 -36 -8 -7 -7 -7
-0 -0 -0 -0 -0 -0 -0 -0 -0 -0 -0 -0 -0 -0 -0 -0 -0 -0 -0 -0 -0 -0 -0 -0 -0 -0 -28 -0 -0 -0 -119 -112 -137 -140 -114 -95 -79 -62 -59 -42 -26 -2 -3
-0 -0 -0 -0 -0 -0 -0 -0 -0 -0 -0 -0 -0 -0 -0 -0 -0 -0 -0 -0 -0 -0 -0 -0 -0 -0 -0 -0 -0 -0 -0 -0 -0 -0 -0 -99 -74 -102 -78 -0 -41 -37 -6
-0 -0 -0 -0 -0 -0 -0 -0 -0 -0 -0 -0 -0 -0 -0 -0 -0 -0 -0 -0 -0 -0 -0 -0 -0 -0 -0 -0 -0 -0 -0 -0 -0 -0 -0 -0 -0 -0 -24 -0 -0 -0 -0
-0 -0 -0 -0 -0 -0 -0 -0 -0 -0 -0 -0 -0 -0 -0 -0 -0 -0 -0 -0 -0 -0 -0 -0 -0 -0 -0 -0 -0 -0 -0 -0 -0 -0 -0 -0 -0 -0 -0 -0 -40 -0 -21
-0 -0 -0 -0 -0 -0 -0 -0 -0 -0 -0 -0 -0 -0 -0 -0 -0 -0 -0 -0 -0 -0 -0 -0 -0 -0 -0 -0 -0 -0 -0 -0 -0 -0 -0 -0 -0 -0 -0 -0 -0 -0 -0
-0 -0 -0 -0 -0 -0 -0 -0 -0 -0 -0 -0 -0 -0 -0 -0 -0 -0 -0 -0 -0 -0 -0 -0 -0 -0 -0 -0 -0 -0 -0 -0 -0 -0 -0 -0 -0 -0 -0 -0 -0 -0 -0
-0 -0 -0 -0 -0 -0 -0 -0 -0 -0 -0 -0 -0 -0 -0 -0 -0 -0 -0 -0 -0 -0 -0 -0 -0 -0 -0 -0 -0 -0 -0 -0 -0 -0 -0 -0 -0 -0 -0 -0 -0 -0 -0
-0 -0 -0 -0 -0 -0 -0 -0 -0 -0 -0 -0 -0 -0 -0 -0 -0 -0 -0 -0 -0 -0 -0 -0 -0 -0 -0 -0 -0 -0 -0 -0 -0 -0 -0 -0 -0 -0 -0 -0 -0 -0 -0
-0 -0 -0 -0 -0 -0 -0 -0 -0 -0 -0 -0 -0 -0 -0 -0 -0 -0 -0 -0 -0 -0 -0 -0 -0 -0 -0 -0 -0 -0 -0 -0 -0 -0 -0 -0 -0 -0 -0 -0 -0 -0 -0
-0 -0 -0 -0 -0 -0 -0 -0 -0 -0 -0 -0 -0 -0 -0 -0 -0 -0 -0 -0 -0 -0 -0 -0 -0 -0 -0 -0 -0 -0 -0 -0 -0 -0 -0 -0 -0 -0 -0 -0 -0 -0 -0
-0 -0 -0 -0 -0 -0 -0 -0 -0 -0 -0 -0 -0 -0 -0 -0 -0 -0 -0 -0 -0 -0 -0 -0 -0 -0 -0 -0 -0 -0 -0 -0 -0 -0 -0 -0 -0 -0 -0 -0 -0 -0 -0
-0 -0 -0 -0 -0 -0 -0 -0 -0 -0 -0 -0 -0 -0 -0 -0 -0 -0 -0 -0 -0 -0 -0 -0 -0 -0 -0 -0 -0 -0 -0 -0 -0 -0 -0 -0 -0 -0 -0 -0 -0 -0 -0
Wind_Speed
7 7 9 10 10 10 10 11 11 12 8 8 7 6 8 6 6 7 10 10 9 10 11 9 6 6 10 10 10 10 12 10 7 5 6 5 5 8 9 8 9 10 11
9 10 10 8 9 10 10 11 11 12 10 9 8 7 6 7 9 7 9 10 11 11 11 12 11 10 10 11 10 11 9 8 8 8 2 4 5 4 6 4 8 11 9
8 9 10 11 11 12 12 12 13 12 13 14 9 9 7 4 3 4 5 9 11 12 12 13 12 12 9 11 12 12 14 10 6 12 5 3 5 3 4 8 9 9 7
7 6 9 12 11 12 12 13 14 15 12 14 9 12 10 10 7 9 8 8 9 11 12 12 12 12 10 12 12 11 12 11 11 4 8 2 5 5 2 3 7 9 9
7 7 7 8 9 10 12 11 14 15 15 13 11 9 11 10 9 5 7 9 8 9 11 10 11 12 10 12 10 13 13 11 11 9 3 9 2 3 3 3 3 2 7
7 6 6 7 8 7 7 8 10 13 15 16 15 11 11 12 8 7 7 8 7 8 11 12 11 13 12 11 11 12 15 13 12 10 9 7 6 6 4 3 4 5 5
7 7 8 7 7 10 11 12 14 15 15 16 16 15 11 10 12 11 8 9 7 7 10 9 10 11 13 12 12 10 13 13 13 13 10 9 10 4 9 6 4 5 5
7 9 8 7 7 10 12 13 14 15 14 14 15 14 14 8 8 10 9 8 8 9 9 9 10 12 12 12 11 10 10 12 12 14 13 10 8 5 5 9 9 5 4
8 8 7 6 7 9 11 11 13 13 14 14 13 14 14 14 12 13 11 8 9 8 8 8 10 12 13 13 12 10 11 10 11 12 12 11 9 7 7 5 6 9 9
7 7 6 7 5 7 7 10 11 13 13 14 11 13 16 16 15 13 12 11 9 9 10 11 10 11 12 13 12 11 11 11 10 9 9 11 8 9 7 7 7 7 9
8 6 6 6 6 6 7 11 10 11 12 13 13 15 14 15 13 12 13 9 7 7 8 10 10 11 12 13 11 12 10 11 10 7 10 12 8 8 7 7 7 8 8
8 6 7 7 6 7 6 9 10 10 11 12 14 15 14 14 13 11 11 9 9 9 9 8 9 9 5 9 12 12 11 11 10 8 7 10 7 8 7 7 10 9 9
8 7 6 6 6 6 7 7 9 10 10 11 13 14 13 13 12 11 11 9 9 10 9 8 6 5 5 7 11 10 10 9 9 9 10 11 9 10 9 9 8 8 7
8 6 5 6 5 6 6 7 8 9 9 11 12 14 14 13 12 12 10 8 8 9 7 6 6 6 4 11 12 9 9 10 9 9 10 9 10 12 11 10 10 9 9
7 7 6 5 5 6 6 6 6 8 9 10 11 12 14 13 12 13 8 6 7 7 5 5 5 5 1 3 7 6 6 6 7 7 9 9 10 13 11 8 9 10 8
8 7 6 5 6 6 6 5 6 7 7 8 10 11 12 13 12 11 11 10 9 8 8 8 7 7 5 15 13 9 6 6 6 6 6 6 11 13 16 18 16 13 12
8 8 7 6 5 6 5 5 6 6 7 7 8 9 10 11 11 10 10 10 10 9 10 10 9 8 8 19 16 12 6 5 4 5 6 4 3 6 6 10 14 15 15
8 7 6 6 6 4 4 4 4 5 6 6 7 7 8 9 10 10 9 9 8 9 9 9 10 8 7 18 15 12 5 5 2 2 3 3 3 1 3 4 5 7 1
8 7 6 5 4 5 5 4 4 4 5 6 6 6 5 6 7 8 8 7 7 7 8 7 9 10 10 22 19 12 4 5 6 7 8 7 6 7 5 5 5 7 7
6 6 7 5 5 6 4 4 5 4 5 5 6 6 5 5 5 5 6 4 4 5 5 6 8 13 11 21 18 13 5 8 7 9 11 18 12 15 14 9 7 10 7
8 7 7 7 8 6 4 5 5 6 5 5 5 5 5 5 5 4 4 5 5 5 5 6 7 8 10 10 19 18 9 6 7 8 8 8 19 19 19 18 11 9 5
8 8 7 8 7 7 6 6 7 5 5 3 3 4 5 5 5 5 5 5 5 5 5 5 5 6 8 15 17 19 18 14 9 8 6 9 20 21 18 13 18 15 9
7 6 9 8 7 7 8 7 6 5 4 3 2 1 3 4 4 4 5 4 5 4 4 4 4 5 5 5 15 16 17 17 10 7 12 17 17 17 14 18 17 13 6
7 6 7 8 8 7 8 8 5 5 4 4 4 3 3 1 2 3 3 3 3 3 4 4 4 4 4 4 4 5 5 11 8 10 10 13 14 15 12 9 9 6 5
6 5 7 9 11 7 8 7 7 6 6 5 4 4 3 2 0 0 1 2 1 3 2 2 2 4 5 5 8 6 4 4 7 7 5 6 6 6 6 6 6 5 5
5 6 7 8 10 7 8 7 7 7 6 5 5 4 4 4 3 3 1 2 4 6 6 5 4 3 6 6 8 8 9 10 8 6 6 6 5 5 5 5 5 4 6
Wind_Direction
308 313 319 321 324 320 318 312 308 302 295 293 284 274 258 261 251 238 240 238 241 243 252 252 249 234 237 228 215 218 226 228 217 212 232 247 238 225 214 203 200 204 204
313 319 324 326 322 308 305 307 303 298 291 281 269 261 259 251 247 227 233 232 237 244 245 248 251 242 243 235 221 211 219 228 200 214 224 222 222 221 231 204 209 211 205
298 316 334 335 331 328 324 316 310 312 304 290 272 269 265 268 246 246 238 231 229 236 241 246 243 244 237 238 229 222 218 225 204 216 170 184 239 161 193 215 217 214 204
312 302 337 335 334 329 327 323 322 315 311 311 274 256 253 255 239 238 236 237 226 231 235 238 241 241 240 237 235 224 222 219 225 217 225 193 152 191 234 247 213 224 213
291 307 317 316 319 323 324 325 323 321 321 315 309 266 257 258 257 242 230 236 233 230 239 243 245 242 239 241 240 232 222 223 227 216 162 216 205 231 153 206 229 226 226
279 289 290 303 304 309 307 315 319 323 329 324 320 316 266 266 264 246 237 241 238 239 238 239 244 251 244 240 236 238 235 227 225 224 217 203 191 194 171 178 209 212 221
290 305 294 281 297 312 324 329 338 333 332 329 327 323 311 283 273 263 243 239 238 235 240 236 242 243 244 241 235 231 237 237 232 229 226 226 226 186 209 204 191 205 227
267 262 295 301 300 318 323 323 329 325 326 325 325 321 316 308 296 274 254 242 236 237 234 237 245 249 246 241 230 226 227 236 234 230 226 230 224 203 186 207 205 224 220
268 277 297 320 320 318 313 315 310 313 320 324 324 319 317 317 304 298 271 252 247 246 241 239 247 253 253 245 236 226 225 221 230 232 227 228 229 205 208 208 210 208 228
290 299 305 293 297 290 297 307 313 315 313 312 319 318 317 312 310 304 287 256 245 240 246 250 250 257 260 251 238 228 227 217 225 226 219 230 228 223 212 204 211 219 230
285 291 285 284 285 292 307 312 315 316 320 319 315 317 311 310 306 302 307 268 252 240 235 240 248 257 262 263 242 234 226 213 222 212 225 234 221 229 211 205 207 215 216
285 286 278 295 306 301 306 311 318 315 323 320 319 314 310 311 306 308 300 309 271 265 249 238 241 255 281 281 248 235 230 216 217 210 210 223 217 221 210 206 211 214 212
278 272 296 299 312 305 308 317 312 306 324 315 324 319 317 314 311 306 299 298 296 268 255 239 227 229 270 278 266 228 222 212 215 208 212 219 204 219 223 218 219 222 226
264 272 283 285 299 301 308 306 306 309 326 325 324 325 323 323 319 307 289 282 279 273 256 245 221 219 326 279 280 222 213 219 214 211 211 207 203 211 210 219 220 225 226
266 267 269 291 306 310 311 310 307 323 330 323 330 333 331 333 334 341 327 335 12 5 9 41 43 14 152 11 331 326 252 224 221 211 211 208 205 200 199 203 217 239 238
255 256 249 278 292 298 306 311 309 321 326 318 325 338 344 347 347 356 1 2 14 27 20 31 29 30 29 354 348 326 298 253 224 223 220 215 211 214 209 209 209 211 224
250 252 249 252 258 270 290 306 311 320 315 311 321 340 343 354 352 0 10 11 18 19 28 26 21 21 13 355 341 325 285 281 267 249 234 207 181 221 218 224 232 234 231
247 245 238 249 255 238 266 283 305 322 311 313 315 330 347 351 355 4 7 14 22 31 27 20 16 12 357 355 343 321 244 234 209 218 230 184 154 353 242 239 234 231 244
240 233 222 228 247 256 264 282 304 317 319 319 320 327 341 350 349 357 3 12 22 26 26 25 17 7 350 357 354 334 231 118 82 73 59 62 60 38 251 186 127 93 78
230 221 220 218 226 260 261 274 284 296 310 312 315 324 336 357 350 350 336 350 19 30 25 13 8 8 356 350 22 29 71 91 90 81 75 68 66 64 67 85 97 87 63
227 213 203 212 222 216 216 262 279 279 282 298 322 342 345 360 350 348 358 357 11 26 14 14 11 15 3 353 34 50 55 71 82 74 67 61 63 59 64 73 68 75 72
230 214 209 219 213 198 196 244 251 246 274 291 331 342 354 0 6 11 6 10 14 18 8 17 14 3 2 18 36 55 63 60 63 66 63 69 69 66 60 65 74 74 65
250 222 215 224 222 200 191 219 235 234 275 284 285 288 15 10 8 25 22 18 12 13 8 12 6 358 2 12 31 55 70 73 74 72 82 78 72 68 61 66 67 62 55
261 250 218 223 236 214 207 219 219 207 212 228 243 220 182 97 25 28 36 45 39 27 14 12 6 347 353 5 22 35 39 68 73 81 81 79 74 72 70 60 55 47 53
268 234 223 232 237 205 220 208 201 196 216 214 222 224 199 173 219 333 129 58 291 112 91 34 352 15 15 16 33 46 72 78 92 77 70 69 67 67 58 55 45 40 39
254 263 248 237 243 211 219 206 195 189 204 215 206 204 197 200 199 193 268 58 77 63 60 90 92 352 36 32 40 48 63 82 92 81 82 77 69 67 60 49 44 33 25